TimeMST,TemperatureF,Dew PointF,Humidity,Sea Level PressureIn,VisibilityMPH,Wind Direction,Wind SpeedMPH,Gust SpeedMPH,PrecipitationIn,Events,Conditions,WindDirDegrees,DateUTC
12:58 AM,20.3,10.4,66,30.24,10.0,ENE,4.6,-,N/A,,Clear,70,2013-12-15 07:58:00
1:52 AM,28.4,12.2,51,30.14,10.0,West,12.7,18.4,N/A,,Clear,270,2013-12-15 08:52:00
1:58 AM,31.8,12.4,45,30.17,10.0,North,8.1,23.0,N/A,,Clear,360,2013-12-15 08:58:00
2:58 AM,36.5,15.6,43,30.16,10.0,Variable,3.5,-,N/A,,Clear,0,2013-12-15 09:58:00
3:58 AM,32.7,14.9,48,30.19,10.0,North,9.2,-,N/A,,Clear,10,2013-12-15 10:58:00
4:58 AM,28.0,13.6,55,30.22,10.0,North,5.8,-,N/A,,Clear,360,2013-12-15 11:58:00
5:58 AM,27.5,13.6,56,30.25,10.0,North,12.7,-,N/A,,Clear,10,2013-12-15 12:58:00
6:58 AM,27.1,12.2,53,30.32,10.0,ENE,8.1,-,N/A,,Clear,70,2013-12-15 13:58:00
7:58 AM,24.8,12.4,59,30.35,10.0,ENE,9.2,-,N/A,,Clear,60,2013-12-15 14:58:00
8:58 AM,33.4,14.4,46,30.33,10.0,Variable,1.2,-,N/A,,Clear,0,2013-12-15 15:58:00
9:58 AM,41.7,11.5,29,30.30,10.0,SSE,9.2,-,N/A,,Clear,160,2013-12-15 16:58:00
10:58 AM,43.9,12.0,27,30.27,10.0,Variable,5.8,-,N/A,,Clear,0,2013-12-15 17:58:00
11:58 AM,46.4,12.6,26,30.20,10.0,South,3.5,-,N/A,,Clear,180,2013-12-15 18:58:00
12:58 PM,48.9,12.7,23,30.18,10.0,South,4.6,-,N/A,,Clear,190,2013-12-15 19:58:00
1:58 PM,49.5,14.4,25,30.12,10.0,SE,2.3,-,N/A,,Clear,140,2013-12-15 20:58:00
2:58 PM,51.4,14.9,23,30.11,10.0,SSW,3.5,-,N/A,,Clear,210,2013-12-15 21:58:00
3:58 PM,50.0,16.2,26,30.13,10.0,South,3.5,-,N/A,,Clear,190,2013-12-15 22:58:00
4:58 PM,40.1,17.1,39,30.20,10.0,West,3.5,-,N/A,,Clear,270,2013-12-15 23:58:00
5:58 PM,32.2,17.4,55,30.24,10.0,NNE,6.9,-,N/A,,Clear,30,2013-12-16 00:58:00
6:58 PM,32.7,16.2,51,30.25,10.0,Variable,5.8,-,N/A,,Clear,0,2013-12-16 01:58:00
7:58 PM,48.9,1.0,14,30.16,10.0,WNW,10.4,32.2,N/A,,Clear,300,2013-12-16 02:58:00
8:29 PM,46.4,6.8,20,30.14,10.0,WNW,19.6,33.4,N/A,,Clear,290,2013-12-16 03:29:00
8:55 PM,48.2,5.0,17,30.14,10.0,NW,18.4,38.0,N/A,,Clear,320,2013-12-16 03:55:00
8:58 PM,47.3,4.1,17,30.12,10.0,North,13.8,38.0,N/A,,Clear,360,2013-12-16 03:58:00
9:05 PM,48.2,3.2,16,30.15,10.0,North,11.5,25.3,N/A,,Clear,350,2013-12-16 04:05:00
9:24 PM,48.2,5.0,17,30.15,10.0,NW,20.7,32.2,N/A,,Clear,310,2013-12-16 04:24:00
9:34 PM,48.2,5.0,17,30.16,10.0,WNW,13.8,25.3,N/A,,Clear,290,2013-12-16 04:34:00
9:58 PM,46.8,6.6,19,30.09,10.0,West,24.2,31.1,N/A,,Clear,280,2013-12-16 04:58:00
10:58 PM,44.2,7.2,22,30.10,10.0,North,8.1,-,N/A,,Clear,360,2013-12-16 05:58:00
11:20 PM,46.4,8.6,22,30.14,10.0,WNW,16.1,31.1,N/A,,Clear,300,2013-12-16 06:20:00
11:32 PM,46.4,6.8,20,30.15,10.0,North,13.8,27.6,N/A,,Clear,350,2013-12-16 06:32:00
11:45 PM,46.4,8.6,22,30.14,10.0,NW,20.7,27.6,N/A,,Clear,310,2013-12-16 06:45:00
11:49 PM,46.4,8.6,22,30.15,10.0,North,12.7,29.9,N/A,,Clear,360,2013-12-16 06:49:00
11:53 PM,46.4,8.6,22,30.15,10.0,NW,19.6,29.9,N/A,,Clear,310,2013-12-16 06:53:00
11:58 PM,46.2,8.2,21,30.06,10.0,WNW,21.9,29.9,N/A,,Clear,290,2013-12-16 06:58:00